Regional Weather Roundup
Issued by NWS

Home | Current Version | Previous Version | Graphics & Text | Print | Product List | Glossary On
Versions: 1 2 3 4 5 6 7 8 9 10 11 12 13 14 15 16 17 18 19 20 21 22 23 24 25 26 27 28 29 30 31 32 33 34 35 36 37 38 39 40 41 42 43 44 45 46 47 48 49 50
000
ASUS43 KLSX 280507
RWRMO

WEATHER SUMMARY FOR MISSOURI
NATIONAL WEATHER SERVICE SPRINGFIELD MO
1200 AM CDT TUE APR 28 2015

NOTE: "FAIR" INDICATES FEW OR NO CLOUDS BELOW 12,000 FEET WITH NO
       SIGNIFICANT WEATHER AND/OR OBSTRUCTIONS TO VISIBILITY.
       CURRENT SKY AND/OR WEATHER CONDITIONS ARE NOT AVAILABLE FOR
       CHILLICOTHE AND FARMINGTON.

MOZ001>031-035>038-043-044-053-054-280600-
...NORTHERN AND WESTERN MISSOURI...

CITY           SKY/WX    TMP DP  RH WIND       PRES   REMARKS
KANSAS CTY INT PTCLDY    51  36  56 NE6       30.13R
KANSAS C DTWN  PTCLDY    55  36  48 CALM      30.12R
LEE`S SUMMIT   MOCLDY    53  36  52 N5        30.12R
ST JOSEPH      PTCLDY    48  39  71 N9        30.14R
CHILLICOTHE      N/A     47  41  80 NW3       30.14S
KIRKSVILLE     CLEAR     46  39  76 N5        30.13S

$$
MOZ066>068-077>081-088>096-101>105-280600-
...SOUTHWEST MISSOURI...

CITY           SKY/WX    TMP DP  RH WIND       PRES   REMARKS
SPRINGFIELD    CLOUDY    52  37  56 NE6       30.06R
JOPLIN         CLOUDY    52  39  61 N5        30.08R

$$
MOZ032>034-039>042-045>050-055>058-069>072-280600-
...CENTRAL MISSOURI...

CITY           SKY/WX    TMP DP  RH WIND       PRES   REMARKS
COLUMBIA       CLEAR     50  38  63 NE7       30.10S
JEFFERSON CITY CLEAR     56  36  47 NE7       30.09S
ROLLA          CLEAR     48  36  63 NE5       30.07R
SEDALIA        CLEAR     52  37  56 CALM      30.12R
WARRENSBURG    CLEAR     52  36  54 CALM      30.11R
OSAGE BEACH    PTCLDY    50  36  57 NE3       30.09S

$$
MOZ051-052-059>065-280600-
...EAST CENTRAL MISSOURI...

CITY           SKY/WX    TMP DP  RH WIND       PRES   REMARKS
ST LOUIS INTL  PTCLDY    52  39  61 E7        30.10R
SPIRIT OF STL  CLEAR     44  40  85 CALM      30.09R
ST CHARLES     CLEAR     49  39  68 NE6       30.09S

$$
MOZ072>076-082>087-097>100-106>115-280600-
...SOUTH CENTRAL AND SOUTHEAST MISSOURI...

CITY           SKY/WX    TMP DP  RH WIND       PRES   REMARKS
CAPE GIRARDEAU MOCLDY    55  40  56 NE14      30.04F
FARMINGTON     PTCLDY    48  37  66 NE6       30.11R
POPLAR BLUFF   PTCLDY    54  41  61 N6        30.03R
WEST PLAINS    PTCLDY    50  35  56 NE7       30.05R

$$


USA.gov is the U.S. government's official web portal to all federal, state and local government web resources and services.